| time (UTC) | temp C | wind direction | speed KPH | gust KPH | rain 1hr cm | rain 24hr cm | rain mn cm | humidity % | barometer mb |
| 20260504232011 | 18 | 155 | 0.0 | 8.0 | 0.00 | 0.00 | 0.00 | 46 | 1005.9 |
| 20260504231531 | 18 | 62 | 1.6 | 8.0 | 0.00 | 0.00 | 0.00 | 46 | 1005.9 |
| 20260504231007 | 18 | 101 | 1.6 | 9.7 | 0.00 | 0.00 | 0.00 | 44 | 1005.9 |
| 20260504230503 | 19 | 254 | 0.0 | 9.7 | 0.00 | 0.00 | 0.00 | 42 | 1005.8 |
| 20260504230017 | 19 | 42 | 0.0 | 9.7 | 0.00 | 0.00 | 0.00 | 41 | 1005.8 |
| 20260504225513 | 19 | 272 | 0.0 | 6.4 | 0.00 | 0.00 | 0.00 | 44 | 1005.6 |
| 20260504225006 | 19 | 264 | 1.6 | 9.7 | 0.00 | 0.00 | 0.00 | 39 | 1005.5 |
| 20260504224520 | 20 | 259 | 1.6 | 9.7 | 0.00 | 0.00 | 0.00 | 42 | 1005.4 |
| 20260504224006 | 20 | 290 | 3.2 | 16.1 | 0.00 | 0.00 | 0.00 | 40 | 1005.3 |
| 20260504223506 | 20 | 263 | 3.2 | 16.1 | 0.00 | 0.00 | 0.00 | 39 | 1005.3 |
| 20260504223022 | 21 | 260 | 1.6 | 8.0 | 0.00 | 0.00 | 0.00 | 38 | 1005.3 |
| 20260504222507 | 21 | 259 | 3.2 | 14.5 | 0.00 | 0.00 | 0.00 | 37 | 1005.3 |
| 20260504222002 | 21 | 267 | 3.2 | 14.5 | 0.00 | 0.00 | 0.00 | 36 | 1005.3 |
| 20260504221504 | 21 | 297 | 1.6 | 6.4 | 0.00 | 0.00 | 0.00 | 38 | 1005.3 |
| 20260504221004 | 21 | 263 | 1.6 | 6.4 | 0.00 | 0.00 | 0.00 | 40 | 1005.3 |
| 20260504220502 | 21 | 26 | 1.6 | 16.1 | 0.00 | 0.00 | 0.00 | 37 | 1005.3 |
| 20260504220002 | 21 | 275 | 3.2 | 16.1 | 0.00 | 0.00 | 0.00 | 38 | 1005.4 |
| 20260504215503 | 20 | 274 | 1.6 | 6.4 | 0.00 | 0.00 | 0.00 | 39 | 1005.4 |
| 20260504215005 | 20 | 222 | 1.6 | 6.4 | 0.00 | 0.00 | 0.00 | 39 | 1005.3 |
| 20260504214504 | 20 | 257 | 1.6 | 11.3 | 0.00 | 0.00 | 0.00 | 36 | 1005.3 |
| 20260504214004 | 21 | 58 | 3.2 | 19.3 | 0.00 | 0.00 | 0.00 | 37 | 1005.5 |
| 20260504213503 | 21 | 281 | 3.2 | 19.3 | 0.00 | 0.00 | 0.00 | 38 | 1005.3 |
| 20260504213006 | 21 | 135 | 3.2 | 19.3 | 0.00 | 0.00 | 0.00 | 36 | 1005.4 |
| 20260504212502 | 21 | 117 | 4.8 | 20.9 | 0.00 | 0.00 | 0.00 | 36 | 1005.4 |
| 20260504212004 | 21 | 254 | 3.2 | 20.9 | 0.00 | 0.00 | 0.00 | 36 | 1005.4 |
| 20260504211505 | 21 | 259 | 4.8 | 12.9 | 0.00 | 0.00 | 0.00 | 38 | 1005.4 |
| 20260504211004 | 21 | 252 | 3.2 | 12.9 | 0.00 | 0.00 | 0.00 | 36 | 1005.3 |
| 20260504210503 | 21 | 252 | 3.2 | 12.9 | 0.00 | 0.00 | 0.00 | 36 | 1005.3 |
| 20260504210003 | 21 | 234 | 3.2 | 14.5 | 0.00 | 0.00 | 0.00 | 36 | 1005.3 |
| 20260504205504 | 21 | 257 | 4.8 | 16.1 | 0.00 | 0.00 | 0.00 | 35 | 1005.4 |
| 20260504205002 | 21 | 177 | 3.2 | 16.1 | 0.00 | 0.00 | 0.00 | 36 | 1005.2 |
| 20260504204505 | 21 | 219 | 3.2 | 16.1 | 0.00 | 0.00 | 0.00 | 38 | 1005.3 |
| 20260504204002 | 21 | 58 | 3.2 | 22.5 | 0.00 | 0.00 | 0.00 | 37 | 1005.1 |
| 20260504203503 | 21 | 240 | 4.8 | 22.5 | 0.00 | 0.00 | 0.00 | 36 | 1005.2 |
| 20260504203003 | 21 | 329 | 4.8 | 22.5 | 0.00 | 0.00 | 0.00 | 39 | 1005.2 |
| 20260504202504 | 21 | 18 | 1.6 | 22.5 | 0.00 | 0.00 | 0.00 | 37 | 1005.2 |
| 20260504202004 | 21 | 109 | 4.8 | 14.5 | 0.00 | 0.00 | 0.00 | 36 | 1005.2 |
| 20260504201503 | 21 | 312 | 1.6 | 14.5 | 0.00 | 0.00 | 0.00 | 35 | 1005.4 |
| 20260504201007 | 21 | 283 | 4.8 | 17.7 | 0.00 | 0.00 | 0.00 | 36 | 1005.4 |
| 20260504200503 | 21 | 220 | 8.0 | 17.7 | 0.00 | 0.00 | 0.00 | 36 | 1005.4 |
| 20260504200013 | 21 | 229 | 3.2 | 8.0 | 0.00 | 0.00 | 0.00 | 40 | 1005.5 |
| 20260504195504 | 20 | 273 | 3.2 | 12.9 | 0.00 | 0.00 | 0.00 | 38 | 1005.4 |
| 20260504195007 | 20 | 263 | 1.6 | 16.1 | 0.00 | 0.00 | 0.00 | 38 | 1005.4 |
| 20260504194511 | 20 | 246 | 4.8 | 19.3 | 0.00 | 0.00 | 0.00 | 38 | 1005.4 |
| 20260504194006 | 20 | 61 | 4.8 | 19.3 | 0.00 | 0.00 | 0.00 | 38 | 1005.5 |
| 20260504193503 | 20 | 146 | 4.8 | 12.9 | 0.00 | 0.00 | 0.00 | 38 | 1005.5 |
| 20260504193010 | 20 | 268 | 4.8 | 16.1 | 0.00 | 0.00 | 0.00 | 38 | 1005.6 |
| 20260504192503 | 20 | 257 | 4.8 | 17.7 | 0.00 | 0.00 | 0.00 | 37 | 1005.6 |
| 20260504192005 | 20 | 126 | 4.8 | 20.9 | 0.00 | 0.00 | 0.00 | 40 | 1005.7 |
| 20260504191507 | 20 | 261 | 6.4 | 20.9 | 0.00 | 0.00 | 0.00 | 38 | 1005.6 |
| 20260504191004 | 19 | 315 | 3.2 | 17.7 | 0.00 | 0.00 | 0.00 | 38 | 1005.8 |
| 20260504190504 | 19 | 135 | 4.8 | 12.9 | 0.00 | 0.00 | 0.00 | 41 | 1005.8 |
| 20260504190008 | 19 | 176 | 4.8 | 12.9 | 0.00 | 0.00 | 0.00 | 39 | 1005.7 |
| 20260504185503 | 20 | 267 | 4.8 | 19.3 | 0.00 | 0.00 | 0.00 | 39 | 1005.7 |
| 20260504185005 | 20 | 216 | 6.4 | 19.3 | 0.00 | 0.00 | 0.00 | 38 | 1005.7 |
| 20260504184511 | 20 | 269 | 3.2 | 25.7 | 0.00 | 0.00 | 0.00 | 39 | 1005.8 |
| 20260504184004 | 20 | 240 | 4.8 | 25.7 | 0.00 | 0.00 | 0.00 | 39 | 1005.7 |
| 20260504183506 | 20 | 360 | 8.0 | 25.7 | 0.00 | 0.00 | 0.00 | 38 | 1005.8 |
| 20260504183015 | 20 | 233 | 6.4 | 16.1 | 0.00 | 0.00 | 0.00 | 39 | 1005.9 |
| 20260504182502 | 19 | 84 | 3.2 | 16.1 | 0.00 | 0.00 | 0.00 | 41 | 1005.7 |
| 20260504182005 | 19 | 267 | 3.2 | 16.1 | 0.00 | 0.00 | 0.00 | 40 | 1005.8 |
| 20260504181504 | 19 | 257 | 4.8 | 22.5 | 0.00 | 0.00 | 0.00 | 40 | 1005.8 |
| 20260504181004 | 19 | 296 | 6.4 | 22.5 | 0.00 | 0.00 | 0.00 | 40 | 1005.9 |
| 20260504180507 | 19 | 204 | 8.0 | 22.5 | 0.00 | 0.00 | 0.00 | 39 | 1005.9 |
| 20260504180004 | 20 | 222 | 6.4 | 17.7 | 0.00 | 0.00 | 0.00 | 37 | 1006.0 |
| 20260504175503 | 20 | 210 | 3.2 | 14.5 | 0.00 | 0.00 | 0.00 | 37 | 1005.9 |
| 20260504175005 | 20 | 169 | 6.4 | 22.5 | 0.00 | 0.00 | 0.00 | 36 | 1005.9 |
| 20260504174503 | 20 | 292 | 3.2 | 22.5 | 0.00 | 0.00 | 0.00 | 39 | 1005.7 |
| 20260504174005 | 20 | 41 | 4.8 | 25.7 | 0.00 | 0.00 | 0.00 | 40 | 1005.8 |
| 20260504173503 | 20 | 340 | 3.2 | 25.7 | 0.00 | 0.00 | 0.00 | 39 | 1005.9 |
| 20260504173005 | 19 | 273 | 3.2 | 17.7 | 0.00 | 0.00 | 0.00 | 40 | 1006.0 |
| 20260504172503 | 19 | 244 | 4.8 | 17.7 | 0.00 | 0.00 | 0.00 | 41 | 1006.0 |
| 20260504172006 | 19 | 314 | 6.4 | 32.2 | 0.00 | 0.00 | 0.00 | 38 | 1006.1 |
| 20260504171534 | 18 | 245 | 4.8 | 32.2 | 0.00 | 0.00 | 0.00 | 39 | 1006.0 |
| 20260504171005 | 18 | 258 | 6.4 | 14.5 | 0.00 | 0.00 | 0.00 | 40 | 1006.0 |
| 20260504170506 | 18 | 232 | 1.6 | 20.9 | 0.00 | 0.00 | 0.00 | 41 | 1006.1 |
| 20260504151007 | 17 | 256 | 4.8 | 16.1 | 0.00 | 0.00 | 0.00 | 43 | 1007.0 |
| 20260504150512 | 17 | 249 | 4.8 | 17.7 | 0.00 | 0.00 | 0.00 | 44 | 1007.1 |
| 20260504141006 | 15 | 230 | 8.0 | 17.7 | 0.00 | 0.00 | 0.00 | 49 | 1007.6 |
| 20260504140504 | 15 | 234 | 4.8 | 20.9 | 0.00 | 0.00 | 0.00 | 50 | 1007.8 |
| 20260504130503 | 12 | 146 | 1.6 | 17.7 | 0.00 | 0.00 | 0.00 | 60 | 1008.4 |
| 20260504110504 | 1 | 151 | 0.0 | 1.6 | 0.00 | 0.00 | 0.00 | 91 | 1009.4 |
| 20260504100501 | 0 | 151 | 1.6 | 3.2 | 0.00 | 0.00 | 0.00 | 92 | 1009.1 |
| 20260504082006 | 0 | 151 | 0.0 | 1.6 | 0.00 | 0.00 | 0.00 | 91 | 1009.0 |
| 20260504081516 | 0 | 151 | 0.0 | 3.2 | 0.00 | 0.00 | 0.00 | 91 | 1009.1 |
| 20260504081007 | 0 | 151 | 0.0 | 3.2 | 0.00 | 0.00 | 0.00 | 92 | 1009.1 |
| 20260504080507 | 0 | 151 | 0.0 | 1.6 | 0.00 | 0.00 | 0.00 | 92 | 1009.2 |
| 20260504050506 | -2 | 151 | 0.0 | 3.2 | 0.00 | 0.03 | 0.00 | 91 | 1009.1 |
| 20260504050016 | -2 | 151 | 0.0 | 0.0 | 0.00 | 0.03 | 0.00 | 91 | 1009.2 |
| 20260504045503 | -2 | 151 | 0.0 | 1.6 | 0.00 | 0.03 | 0.00 | 91 | 1009.1 |
| 20260504045006 | -2 | 151 | 0.0 | 3.2 | 0.00 | 0.03 | 0.00 | 91 | 1009.2 |
| 20260504044524 | -2 | 151 | 0.0 | 3.2 | 0.00 | 0.03 | 0.00 | 91 | 1009.2 |
| 20260504044006 | -2 | 151 | 0.0 | 1.6 | 0.00 | 0.03 | 0.00 | 91 | 1009.3 |
| 20260504043506 | -1 | 151 | 0.0 | 3.2 | 0.00 | 0.03 | 0.00 | 91 | 1009.2 |
| 20260504043021 | -1 | 151 | 0.0 | 3.2 | 0.00 | 0.03 | 0.00 | 91 | 1009.2 |
| 20260504042509 | -1 | 151 | 1.6 | 3.2 | 0.00 | 0.03 | 0.00 | 91 | 1009.2 |
| 20260504042003 | -1 | 151 | 0.0 | 1.6 | 0.00 | 0.03 | 0.00 | 90 | 1009.2 |
| 20260504041505 | -1 | 151 | 0.0 | 3.2 | 0.00 | 0.03 | 0.00 | 90 | 1009.1 |
| 20260504041003 | -1 | 151 | 0.0 | 3.2 | 0.00 | 0.03 | 0.00 | 91 | 1009.0 |
| 20260504040504 | -1 | 151 | 0.0 | 1.6 | 0.00 | 0.03 | 0.00 | 91 | 1009.0 |
| 20260504040009 | -1 | 151 | 0.0 | 1.6 | 0.00 | 0.03 | 0.00 | 90 | 1008.9 |
| 20260504035504 | -1 | 151 | 0.0 | 1.6 | 0.00 | 0.03 | 0.03 | 90 | 1009.0 |
| 20260504035004 | -1 | 151 | 0.0 | 0.0 | 0.00 | 0.03 | 0.03 | 90 | 1008.9 |
| 20260504034512 | -1 | 151 | 0.0 | 1.6 | 0.00 | 0.03 | 0.03 | 90 | 1008.9 |
| 20260504034007 | -1 | 151 | 0.0 | 3.2 | 0.00 | 0.03 | 0.03 | 90 | 1008.9 |
| 20260504033503 | -1 | 151 | 0.0 | 3.2 | 0.00 | 0.03 | 0.03 | 89 | 1008.9 |
| 20260504033008 | 0 | 151 | 1.6 | 3.2 | 0.00 | 0.03 | 0.03 | 90 | 1008.9 |
| 20260504032503 | 0 | 151 | 0.0 | 1.6 | 0.00 | 0.03 | 0.03 | 90 | 1008.8 |
| 20260504032005 | 0 | 151 | 0.0 | 1.6 | 0.00 | 0.03 | 0.03 | 90 | 1008.8 |
| 20260504031505 | 0 | 151 | 0.0 | 1.6 | 0.00 | 0.03 | 0.03 | 90 | 1008.7 |
| 20260504031003 | 0 | 151 | 0.0 | 1.6 | 0.00 | 0.03 | 0.03 | 89 | 1008.7 |
| 20260504030502 | 0 | 151 | 0.0 | 1.6 | 0.00 | 0.03 | 0.03 | 89 | 1008.7 |
| 20260504030004 | 0 | 151 | 0.0 | 1.6 | 0.00 | 0.03 | 0.03 | 89 | 1008.7 |
| 20260504025504 | 0 | 151 | 0.0 | 1.6 | 0.00 | 0.03 | 0.03 | 89 | 1008.7 |
| 20260504025004 | 0 | 151 | 0.0 | 1.6 | 0.00 | 0.03 | 0.03 | 89 | 1008.7 |
| 20260504024511 | 0 | 151 | 0.0 | 1.6 | 0.00 | 0.03 | 0.03 | 89 | 1008.7 |
| 20260504024001 | 0 | 151 | 0.0 | 1.6 | 0.00 | 0.03 | 0.03 | 88 | 1008.7 |
| 20260504023505 | 0 | 151 | 0.0 | 0.0 | 0.00 | 0.03 | 0.03 | 88 | 1008.8 |
| 20260504023016 | 0 | 151 | 0.0 | 0.0 | 0.00 | 0.03 | 0.03 | 88 | 1008.8 |
| 20260504022502 | 0 | 151 | 0.0 | 1.6 | 0.00 | 0.03 | 0.03 | 87 | 1008.8 |
| 20260504022004 | 0 | 151 | 0.0 | 1.6 | 0.00 | 0.03 | 0.03 | 87 | 1008.8 |
| 20260504021511 | 0 | 151 | 0.0 | 1.6 | 0.00 | 0.03 | 0.03 | 87 | 1008.8 |
| 20260504021006 | 0 | 151 | 0.0 | 0.0 | 0.00 | 0.03 | 0.03 | 86 | 1008.8 |
| 20260504020503 | 1 | 151 | 0.0 | 0.0 | 0.00 | 0.03 | 0.03 | 86 | 1008.7 |
| 20260504020007 | 1 | 151 | 0.0 | 1.6 | 0.00 | 0.03 | 0.03 | 86 | 1008.7 |
| 20260504015503 | 1 | 151 | 0.0 | 3.2 | 0.00 | 0.03 | 0.03 | 85 | 1008.6 |
| 20260504015004 | 1 | 151 | 0.0 | 3.2 | 0.00 | 0.03 | 0.03 | 84 | 1008.6 |
| 20260504014508 | 1 | 151 | 0.0 | 1.6 | 0.00 | 0.03 | 0.03 | 83 | 1008.5 |
| 20260504014002 | 1 | 151 | 0.0 | 1.6 | 0.00 | 0.03 | 0.03 | 83 | 1008.5 |
| 20260504013508 | 2 | 151 | 0.0 | 1.6 | 0.00 | 0.03 | 0.03 | 82 | 1008.5 |
| 20260504013004 | 2 | 151 | 0.0 | 1.6 | 0.00 | 0.03 | 0.03 | 81 | 1008.4 |
| 20260504012508 | 2 | 151 | 0.0 | 1.6 | 0.00 | 0.03 | 0.03 | 80 | 1008.4 |
| 20260504012011 | 2 | 151 | 0.0 | 0.0 | 0.00 | 0.03 | 0.03 | 80 | 1008.5 |
| 20260504011518 | 2 | 151 | 0.0 | 0.0 | 0.00 | 0.03 | 0.03 | 80 | 1008.3 |
| 20260504011004 | 2 | 151 | 0.0 | 0.0 | 0.00 | 0.03 | 0.03 | 80 | 1008.3 |
| 20260504010505 | 3 | 151 | 0.0 | 0.0 | 0.00 | 0.03 | 0.03 | 79 | 1008.4 |
| 20260504010018 | 3 | 151 | 0.0 | 0.0 | 0.00 | 0.03 | 0.03 | 79 | 1008.4 |
| 20260504005507 | 3 | 151 | 0.0 | 0.0 | 0.00 | 0.03 | 0.03 | 79 | 1008.4 |
| 20260504005003 | 3 | 151 | 0.0 | 0.0 | 0.00 | 0.03 | 0.03 | 78 | 1008.3 |
| 20260504004503 | 3 | 151 | 0.0 | 0.0 | 0.00 | 0.03 | 0.03 | 76 | 1008.2 |
| 20260504004006 | 4 | 151 | 0.0 | 1.6 | 0.00 | 0.03 | 0.03 | 74 | 1008.1 |
| 20260504003506 | 4 | 151 | 0.0 | 1.6 | 0.00 | 0.03 | 0.03 | 73 | 1008.0 |
| 20260504003008 | 5 | 151 | 0.0 | 1.6 | 0.00 | 0.03 | 0.03 | 71 | 1008.0 |
| 20260504002503 | 5 | 151 | 0.0 | 1.6 | 0.00 | 0.03 | 0.03 | 70 | 1007.9 |
| 20260504002006 | 5 | 151 | 0.0 | 1.6 | 0.00 | 0.03 | 0.03 | 68 | 1007.8 |
| 20260504001506 | 6 | 151 | 0.0 | 1.6 | 0.00 | 0.05 | 0.03 | 66 | 1007.7 |
| 20260504001003 | 6 | 151 | 0.0 | 1.6 | 0.00 | 0.05 | 0.03 | 64 | 1007.6 |
| 20260504000507 | 6 | 151 | 0.0 | 1.6 | 0.00 | 0.08 | 0.03 | 62 | 1007.5 |
| 20260504000017 | 7 | 151 | 0.0 | 6.4 | 0.00 | 0.10 | 0.03 | 62 | 1007.5 |
| 20260503235506 | 7 | 151 | 0.0 | 6.4 | 0.00 | 0.15 | 0.03 | 60 | 1007.4 |
| 20260503235004 | 7 | 231 | 0.0 | 12.9 | 0.00 | 0.20 | 0.03 | 60 | 1007.4 |
| 20260503234534 | 7 | 290 | 1.6 | 12.9 | 0.00 | 0.23 | 0.03 | 58 | 1007.4 |
| 20260503234004 | 7 | 271 | 0.0 | 9.7 | 0.00 | 0.23 | 0.03 | 57 | 1007.4 |
| 20260503233505 | 7 | 223 | 3.2 | 9.7 | 0.00 | 0.25 | 0.03 | 56 | 1007.3 |
| 20260503233007 | 7 | 275 | 0.0 | 6.4 | 0.00 | 0.25 | 0.03 | 59 | 1007.2 |
| 20260503232504 | 8 | 292 | 0.0 | 8.0 | 0.00 | 0.25 | 0.03 | 58 | 1007.1 |